Location: Anaheim
(33.8350°N, 117.9140°W)
Time: 09:56:52
(UTC-07:00)

Amateur Radio Satellites - All Passes

Search period start: 24 July 2014 09:26
Search period end: 25 July 2014 09:26
Location: Anaheim, 33.8350°N, 117.9140°W

Satellite Date Start Highest point End Downlink Frequencies (MHz)
Time Altitude Azimuth
ISS 24 Jul 09:35:08 09:37:53 24° 231° (SW) 09:40:38 145.800 FM
PANSAT 24 Jul 09:44:42 09:48:14 34° 185° (S) 09:51:45 not established
UKube-1 24 Jul 09:55:15 09:59:32 54° 101° (E) 10:03:46 145.840 MHz, 145.915 MHz
MaSat-1 24 Jul 10:01:22 10:01:45 10° 262° (W) 10:02:08 437.345 MHz
Sapphire 24 Jul 10:45:58 10:50:40 29° 56° (ENE) 10:55:20 437.095 MHz 1200 baud AX-25 AFSK
Oscar 11 24 Jul 10:46:03 10:50:23 75° 284° (WNW) 10:54:42 145.825 FM, Beacon 2401.500 USB
FUNcube-1 24 Jul 10:53:17 10:57:13 41° 99° (E) 11:01:11 145.950 - 145.970 MHz USB
HO-68 24 Jul 11:12:36 11:18:42 32° 295° (WNW) 11:24:47 435.675 MHz FM
PCSat 24 Jul 11:19:28 11:24:52 63° 63° (ENE) 11:30:12 145.825 MHz
PANSAT 24 Jul 11:25:14 11:28:00 19° 198° (SSW) 11:30:45 not established
UKube-1 24 Jul 11:33:56 11:35:13 11° 295° (WNW) 11:36:30 145.840 MHz, 145.915 MHz
Sapphire 24 Jul 12:29:16 12:34:01 32° 252° (WSW) 12:38:45 437.095 MHz 1200 baud AX-25 AFSK
FUNcube-1 24 Jul 12:31:21 12:33:15 13° 292° (WNW) 12:35:09 145.950 - 145.970 MHz USB
Oscar 16 24 Jul 12:35:06 12:38:28 18° 66° (ENE) 12:41:49 437.025 USB, Beacon 2401.1428
SO-50 24 Jul 12:35:33 12:38:19 16° 109° (ESE) 12:41:06 436.795 FM
RS-15 24 Jul 12:53:22 13:02:34 31° 105° (ESE) 13:11:32 29.354 - 29.394 USB, Beacon 29.352 USB
AO-27 24 Jul 13:03:49 13:06:46 15° 65° (ENE) 13:09:42 436.795 MHz FM
AO-Echo 24 Jul 13:03:52 13:06:53 16° 65° (ENE) 13:09:55 ?
PCSat 24 Jul 13:05:02 13:07:39 14° 257° (WSW) 13:10:16 145.825 MHz
Uribyol 2 24 Jul 13:06:22 13:09:37 17° 66° (ENE) 13:12:53 436.500 FM
JAS-1B 24 Jul 13:17:23 13:23:36 22° 57° (ENE) 13:30:19 435.800 - 435.900 CW/SSB
Oscar 19 24 Jul 13:44:45 13:49:51 88° 76° (ENE) 13:54:59 437.125 CW, 437.150 USB
Oscar 16 24 Jul 14:12:32 14:17:25 45° 260° (W) 14:22:19 437.025 USB, Beacon 2401.1428
SO-50 24 Jul 14:14:18 14:18:29 40° 303° (WNW) 14:22:46 436.795 FM
TMSAT-1 24 Jul 14:15:27 14:19:22 22° 67° (ENE) 14:23:17 436.925 FM
ITAMSAT 1 24 Jul 14:22:36 14:27:50 87° 257° (WSW) 14:33:05 435.822 SSB
Gurwin Techsat 1B 24 Jul 14:35:14 14:40:17 47° 73° (ENE) 14:45:22 435.225 FM
AO-Echo 24 Jul 14:39:56 14:45:05 57° 260° (W) 14:50:20 ?
AO-27 24 Jul 14:40:38 14:45:45 56° 259° (W) 14:50:54 436.795 MHz FM
Uribyol 2 24 Jul 14:43:36 14:48:39 50° 260° (W) 14:53:42 436.500 FM
KITSAT 1 24 Jul 14:43:51 14:48:12 15° 40° (NE) 14:52:32 435.175 FM
Uosat F 24 Jul 14:58:21 14:59:45 11° 63° (ENE) 15:01:08 435.120 FM
UOSAT-12 24 Jul 15:02:20 15:06:33 39° 113° (ESE) 15:10:53 437.025 FM, 437.400 FM
RS-15 24 Jul 15:03:02 15:14:06 64° 302° (WNW) 15:24:57 29.354 - 29.394 USB, Beacon 29.352 USB
JAS-1B 24 Jul 15:04:31 15:12:45 82° 257° (WSW) 15:22:24 435.800 - 435.900 CW/SSB
OPAL 24 Jul 15:35:47 15:36:54 11° 94° (E) 15:38:01 ?
AO-7 24 Jul 15:50:37 15:58:39 54° 67° (ENE) 16:06:41 29.400 - 29.500 MHz
TMSAT-1 24 Jul 15:54:02 15:58:58 40° 261° (W) 16:03:56 436.925 FM
Gurwin Techsat 1B 24 Jul 16:17:01 16:20:26 17° 266° (W) 16:23:53 435.225 FM
Uosat F 24 Jul 16:32:49 16:37:51 74° 258° (WSW) 16:42:55 435.120 FM
KITSAT 1 24 Jul 16:37:03 16:45:07 70° 61° (ENE) 16:53:08 435.175 FM
UOSAT-12 24 Jul 16:43:26 16:46:50 20° 309° (NW) 16:50:18 437.025 FM, 437.400 FM
JAS-1B 24 Jul 17:00:42 17:04:41 14° 275° (W) 17:08:56 435.800 - 435.900 CW/SSB
JAS-2 24 Jul 17:02:54 17:08:31 22° 64° (ENE) 17:14:00 435.800 - 435.900 CW/SSB, 435.910 FM
OPAL 24 Jul 17:11:07 17:16:08 70° 287° (WNW) 17:21:13 ?
Hamsat 24 Jul 17:18:51 17:21:47 19° 70° (ENE) 17:24:44 145.90 MHz
RS-15 24 Jul 17:22:23 17:29:09 18° 329° (NNW) 17:35:56 29.354 - 29.394 USB, Beacon 29.352 USB
Saudisat 1A 24 Jul 17:27:07 17:30:55 28° 54° (NE) 17:34:42 436.775 MHz
AO-7 24 Jul 17:44:38 17:51:37 29° 263° (W) 17:58:39 29.400 - 29.500 MHz
KITSAT 1 24 Jul 18:34:08 18:39:42 21° 257° (WSW) 18:45:15 435.175 FM
JAS-2 24 Jul 18:45:00 18:52:50 71° 258° (WSW) 19:00:28 435.800 - 435.900 CW/SSB, 435.910 FM
Hamsat 24 Jul 18:53:59 18:57:33 27° 263° (W) 19:01:08 145.90 MHz
Saudisat 1A 24 Jul 19:06:50 19:10:21 24° 249° (WSW) 19:13:52 436.775 MHz
SO-67 24 Jul 19:25:03 19:28:31 83° 259° (WSW) 19:31:59 435.3500 MHz FM
STRAND 1 24 Jul 19:26:29 19:31:33 62° 101° (ESE) 19:36:34 ?
RS-15 24 Jul 19:48:24 19:48:35 10° 8° (N) 19:48:46 29.354 - 29.394 USB, Beacon 29.352 USB
HO-68 24 Jul 19:50:22 19:55:34 22° 62° (ENE) 20:00:45 435.675 MHz FM
UKube-1 24 Jul 20:47:20 20:51:06 29° 71° (ENE) 20:54:53 145.840 MHz, 145.915 MHz
STRAND 1 24 Jul 21:07:48 21:10:09 13° 296° (WNW) 21:12:30 ?
HO-68 24 Jul 21:35:33 21:42:38 63° 257° (WSW) 21:49:45 435.675 MHz FM
Oscar 11 24 Jul 21:37:11 21:41:20 50° 75° (ENE) 21:45:30 145.825 FM, Beacon 2401.500 USB
FUNcube-1 24 Jul 21:46:37 21:49:59 22° 71° (ENE) 21:53:18 145.950 - 145.970 MHz USB
RS-15 24 Jul 21:57:30 22:06:38 28° 43° (NE) 22:15:56 29.354 - 29.394 USB, Beacon 29.352 USB
MaSat-1 24 Jul 22:07:48 22:11:27 73° 110° (ESE) 22:15:50 437.345 MHz
UKube-1 24 Jul 22:24:06 22:27:16 20° 264° (W) 22:30:28 145.840 MHz, 145.915 MHz
SO-50 24 Jul 22:49:06 22:53:49 60° 59° (ENE) 22:58:35 436.795 FM
Oscar 11 24 Jul 23:16:48 23:17:45 11° 268° (W) 23:18:43 145.825 FM, Beacon 2401.500 USB
FUNcube-1 24 Jul 23:22:32 23:26:14 26° 263° (W) 23:29:52 145.950 - 145.970 MHz USB
Lituanica SAT-1 24 Jul 23:30:05 23:32:04 40° 319° (NW) 23:34:04 437.275 MHz beacon
UOSAT-12 24 Jul 23:36:46 23:39:22 14° 47° (NE) 23:41:56 437.025 FM, 437.400 FM
RS-15 25 Jul 00:09:02 00:20:09 80° 245° (WSW) 00:31:43 29.354 - 29.394 USB, Beacon 29.352 USB
PCSat 25 Jul 00:17:09 00:19:42 14° 103° (ESE) 00:22:16 145.825 MHz
SO-50 25 Jul 00:31:54 00:33:52 12° 253° (WSW) 00:35:51 436.795 FM
ISS 25 Jul 00:37:16 00:40:34 70° 135° (SE) 00:43:54 145.800 FM
UOSAT-12 25 Jul 01:15:16 01:19:56 63° 244° (WSW) 01:24:30 437.025 FM, 437.400 FM
Sapphire 25 Jul 01:23:20 01:28:36 58° 112° (ESE) 01:33:55 437.095 MHz 1200 baud AX-25 AFSK
PCSat 25 Jul 01:57:09 02:02:29 63° 297° (WNW) 02:07:53 145.825 MHz
Oscar 19 25 Jul 02:00:28 02:05:22 43° 99° (E) 02:10:16 437.125 CW, 437.150 USB
ISS 25 Jul 02:15:50 02:17:35 14° 331° (NNW) 02:19:20 145.800 FM
RS-15 25 Jul 02:25:31 02:30:48 15° 261° (W) 02:36:13 29.354 - 29.394 USB, Beacon 29.352 USB
Oscar 16 25 Jul 02:27:51 02:33:02 87° 103° (ESE) 02:38:12 437.025 USB, Beacon 2401.1428
TMSAT-1 25 Jul 02:37:26 02:38:24 11° 91° (E) 02:39:23 436.925 FM
ITAMSAT 1 25 Jul 02:39:43 02:44:41 46° 100° (E) 02:49:37 435.822 SSB
OPAL 25 Jul 02:46:39 02:49:02 14° 63° (ENE) 02:51:25 ?
AO-Echo 25 Jul 02:51:30 02:56:34 66° 101° (E) 03:01:27 ?
Gurwin Techsat 1B 25 Jul 02:55:54 03:00:18 26° 96° (E) 03:04:40 435.225 FM
JAS-1B 25 Jul 02:56:07 03:05:01 46° 96° (E) 03:12:39 435.800 - 435.900 CW/SSB
AO-27 25 Jul 02:57:36 03:02:47 73° 102° (ESE) 03:07:56 436.795 MHz FM
Uribyol 2 25 Jul 03:00:09 03:05:20 81° 103° (ESE) 03:10:29 436.500 FM
Sapphire 25 Jul 03:08:49 03:12:24 18° 308° (NW) 03:16:00 437.095 MHz 1200 baud AX-25 AFSK
Oscar 19 25 Jul 03:40:47 03:44:21 19° 293° (WNW) 03:47:55 437.125 CW, 437.150 USB
AO-7 25 Jul 03:58:04 04:03:57 21° 95° (E) 04:09:47 29.400 - 29.500 MHz
TMSAT-1 25 Jul 04:13:29 04:18:46 73° 285° (WNW) 04:24:01 436.925 FM
ITAMSAT 1 25 Jul 04:20:22 04:23:46 18° 294° (WNW) 04:27:10 435.822 SSB
OPAL 25 Jul 04:22:31 04:27:23 59° 257° (WSW) 04:32:16 ?
AO-Echo 25 Jul 04:32:40 04:34:40 12° 297° (WNW) 04:36:38 ?
Gurwin Techsat 1B 25 Jul 04:35:34 04:40:13 32° 290° (WNW) 04:44:51 435.225 FM
AO-27 25 Jul 04:39:55 04:41:37 12° 297° (WNW) 04:43:19 436.795 MHz FM
Uribyol 2 25 Jul 04:43:30 04:44:04 10° 298° (WNW) 04:44:38 436.500 FM
Uosat F 25 Jul 04:44:40 04:49:30 47° 100° (E) 04:54:18 435.120 FM
JAS-1B 25 Jul 04:46:43 04:55:11 39° 296° (WNW) 05:02:40 435.800 - 435.900 CW/SSB
KITSAT 1 25 Jul 05:11:10 05:14:11 13° 100° (E) 05:17:13 435.175 FM
AO-7 25 Jul 05:48:59 05:57:15 70° 290° (WNW) 06:05:27 29.400 - 29.500 MHz
PANSAT 25 Jul 06:01:06 06:03:42 17° 161° (SSE) 06:06:17 not established
JAS-2 25 Jul 06:02:18 06:06:03 17° 91° (E) 06:09:35 435.800 - 435.900 CW/SSB, 435.910 FM
Uosat F 25 Jul 06:24:44 06:27:52 17° 294° (WNW) 06:30:58 435.120 FM
MaSat-1 25 Jul 06:32:53 06:33:47 10° 50° (NE) 06:34:41 437.345 MHz
STRAND 1 25 Jul 06:38:28 06:43:31 60° 74° (ENE) 06:48:36 ?
Hamsat 25 Jul 06:42:44 06:47:01 67° 101° (E) 06:51:18 145.90 MHz
KITSAT 1 25 Jul 07:00:16 07:08:21 83° 115° (ESE) 07:16:29 435.175 FM
ISS 25 Jul 07:09:43 07:11:58 17° 32° (NNE) 07:14:12 145.800 FM
Lituanica SAT-1 25 Jul 07:17:51 07:19:38 24° 228° (SW) 07:21:24 437.275 MHz beacon
Saudisat 1A 25 Jul 07:30:58 07:33:55 18° 109° (ESE) 07:36:52 436.775 MHz
PANSAT 25 Jul 07:39:56 07:43:26 33° 173° (S) 07:46:56 not established
AO-7 25 Jul 07:45:18 07:48:31 13° 308° (NW) 07:51:45 29.400 - 29.500 MHz
JAS-2 25 Jul 07:45:47 07:51:35 49° 289° (WNW) 07:56:47 435.800 - 435.900 CW/SSB, 435.910 FM
MaSat-1 25 Jul 08:06:39 08:12:01 81° 67° (ENE) 08:17:00 437.345 MHz
STRAND 1 25 Jul 08:20:50 08:23:02 13° 268° (W) 08:25:14 ?
SO-67 25 Jul 08:25:54 08:29:08 36° 285° (WNW) 08:32:21 435.3500 MHz FM
ISS 25 Jul 08:45:35 08:48:49 48° 227° (SW) 08:52:02 145.800 FM
KITSAT 1 25 Jul 08:58:47 09:04:40 21° 314° (NW) 09:10:34 435.175 FM
HO-68 25 Jul 09:08:03 09:14:16 31° 98° (E) 09:20:25 435.675 MHz FM
Saudisat 1A 25 Jul 09:09:05 09:13:11 37° 304° (WNW) 09:17:18 436.775 MHz
PANSAT 25 Jul 09:19:48 09:23:18 34° 186° (S) 09:26:49 not established
